User: anonymous   Login
Location: Utrecht
(52.0830°N, 5.1330°E)
Time: 14:12:52
(UTC+02:00)
Language:

Cosmos 1092 Rocket - Orbit

View from above orbital plane
View from above orbital plane
View from above satellite
View from above satellite

Ground track
Ground track

The orbit data is extracted from the following two-line orbital elements,

1 11327U 79030B   14294.52995122  .00000028  00000-0  12410-4 0  8652
2 11327 082.9469 295.8296 0027729 017.2955 137.1283 13.76945843785691
Epoch (UTC): 21 October 2014 12:43:07
Eccentricity: 0.0027729
inclination: 82.9469°
perigee height: 954 km
apogee height: 995 km
right ascension of ascending node: 295.8296°
argument of perigee: 17.2955°
revolutions per day: 13.76945843
mean anomaly at epoch: 137.1283°
orbit number at epoch: 78569

The dashed part of the orbit path shows where the satellite is in the earth's shadow,  

DLR